Terminal Aerodrome Forecast
Issued by NWS North Platte, NE

Home | Current Version | Previous Version | Text Only | Print | Product List | Glossary Off
Versions: 1 2 3 4 5 6 7 8 9 10 11 12 13 14 15 16 17 18

000
FTUS43 KLBF 271700
TAFVTN
TAF
KVTN 271720Z 2718/2818 17014G24KT P6SM SKC
     FM280100 15010KT P6SM SKC
     FM280700 17005KT P6SM SKC
     FM281700 16011KT P6SM SKC=

USA.gov is the U.S. government's official web portal to all federal, state and local government web resources and services.